Weather History for KLXV - October, 2012

Change the Weather History Date:

Thursday, October 4, 2012

  Actual Average Record
Temperature  
Mean Temperature 44 °F -  
Max Temperature 58 °F 54 °F - ()
Min Temperature 30 °F 26 °F - ()
Degree Days  
Heating Degree Days 21 25  
Month to date heating degree days 78 97  
Since 1 July heating degree days 1184 1395  
Cooling Degree Days 0 0  
Month to date cooling degree days 0 0  
Year to date cooling degree days 0 0  
Moisture  
Dew Point 22 °F    
Average Humidity 46    
Maximum Humidity 72    
Minimum Humidity 19    
Precipitation  
Precipitation 0.02 in 0.03 in - ()
Month to date precipitation 0.02 0.12  
Year to date precipitation 9.41 10.15  
Sea Level Pressure  
Sea Level Pressure 29.93 in    
Wind  
Wind Speed 8 mph (South)    
Max Wind Speed 38 mph    
Max Gust Speed 59 mph    
Visibility 10 miles    
Events Rain    
T = Trace of Precipitation, MM = Missing Value Source: NWS Daily Summary

Daily Weather History Graph

Daily Weather History Graph

Search for Another Location

Airport or City:

Trip Planner

Search our weather history database for the weather conditions in past years. The results will help you decide how hot, cold, wet, or windy it might be!

Date:

Astronomy

Oct. 04, 2012 Rise Set
Actual Time 7:04 AM MDT 6:42 PM MDT
Civil Twilight 6:37 AM MDT 7:08 PM MDT
Nautical Twilight 6:06 AM MDT 7:39 PM MDT
Astronomical Twilight 5:35 AM MDT 8:11 PM MDT
Moon 9:21 PM MDT (10/4) 11:22 AM MDT (10/4)
Length of Visible Light 12h 31m
Length of Day
11h 37m
Waning Gibbous, 81% of the Moon is Illuminated
Oct 4
Waning Gibbous
Oct 8
Last Quarter
Oct 15
New
Oct 21
First Quarter
Oct 29
Full

Hourly Weather History & Observations

Time (MDT) Temp. Windchill Dew Point Humidity Pressure Visibility Wind Dir Wind Speed Gust Speed Precip Events Conditions
12:53 AM 41.0 °F - 14.0 °F 33% 29.90 in 10.0 mi Calm Calm - N/A   Clear
1:53 AM 42.1 °F - 14.0 °F 32% 29.88 in 10.0 mi Calm Calm - N/A   Mostly Cloudy
2:53 AM 39.9 °F 35.1 °F 12.9 °F 33% 29.89 in 10.0 mi East 6.9 mph - N/A   Overcast
3:53 AM 36.0 °F 29.6 °F 14.0 °F 41% 29.91 in 10.0 mi East 8.1 mph - N/A   Mostly Cloudy
4:53 AM 37.0 °F 32.4 °F 16.0 °F 42% 29.90 in 10.0 mi East 5.8 mph - N/A   Mostly Cloudy
5:53 AM 35.1 °F 28.6 °F 19.9 °F 54% 29.95 in 10.0 mi SSE 8.1 mph - N/A   Mostly Cloudy
6:53 AM 32.0 °F - 24.1 °F 73% 29.97 in 10.0 mi Calm Calm - N/A   Overcast
7:53 AM 33.1 °F 30.0 °F 25.0 °F 72% 29.98 in 10.0 mi Variable 3.5 mph - N/A   Overcast
8:53 AM 36.0 °F 33.3 °F 26.1 °F 67% 29.97 in 10.0 mi Variable 3.5 mph - N/A   Overcast
9:53 AM 41.0 °F - 25.0 °F 53% 29.93 in 10.0 mi Calm Calm - N/A   Overcast
10:53 AM 48.0 °F - 26.1 °F 42% 29.88 in 10.0 mi SSW 4.6 mph - N/A   Overcast
11:53 AM 54.0 °F - 19.0 °F 25% 29.83 in 10.0 mi Calm Calm - N/A   Mostly Cloudy
12:53 PM 57.9 °F - 16.0 °F 19% 29.81 in 10.0 mi West 16.1 mph 32.2 mph N/A   Mostly Cloudy
1:53 PM 55.9 °F - 15.1 °F 20% 29.81 in 10.0 mi WNW 19.6 mph 40.3 mph N/A   Partly Cloudy
2:53 PM 53.1 °F - 16.0 °F 23% 29.84 in 10.0 mi West 27.6 mph 40.3 mph N/A   Scattered Clouds
3:53 PM 46.0 °F 38.3 °F 28.0 °F 50% 29.94 in 9.0 mi SW 20.7 mph 51.8 mph 0.00 in Rain Light Rain
4:53 PM 50.0 °F - 21.9 °F 33% 29.88 in 10.0 mi WSW 11.5 mph 17.3 mph 0.00 in   Mostly Cloudy
5:53 PM 48.9 °F - 21.9 °F 35% 29.90 in 10.0 mi South 11.5 mph - N/A   Overcast
6:53 PM 50.0 °F - 15.1 °F 25% 29.93 in 10.0 mi WNW 12.7 mph - N/A   Mostly Cloudy
7:53 PM 46.9 °F - 17.1 °F 30% 29.94 in 10.0 mi SSE 4.6 mph - N/A   Mostly Cloudy
8:53 PM 46.0 °F 41.9 °F 23.0 °F 40% 29.91 in 10.0 mi SE 8.1 mph - N/A   Overcast
9:53 PM 44.1 °F 37.4 °F 25.0 °F 47% 29.88 in 10.0 mi SSE 13.8 mph 24.2 mph N/A   Overcast
10:41 PM 37.4 °F - 33.8 °F 87% 30.27 in 10.0 mi Calm Calm - 0.01 in Rain Light Rain
10:53 PM 37.9 °F 34.4 °F 33.1 °F 83% 29.94 in 10.0 mi South 4.6 mph - 0.01 in Rain Light Rain
11:31 PM 35.6 °F 31.7 °F 33.8 °F 93% 30.26 in 10.0 mi ESE 4.6 mph - 0.01 in   Overcast
11:53 PM 37.0 °F 33.3 °F 34.0 °F 89% 29.87 in 10.0 mi South 4.6 mph - 0.01 in   Overcast